Temp_Advection
nan nan nan nan nan nan nan nan nan nan nan nan nan nan nan nan nan nan nan nan nan nan nan nan nan nan nan nan nan nan nan nan nan nan nan nan nan nan nan nan nan nan nan
nan -0 -0 -0 0 0 0 0 1 0 0 -0 -0 -0 -0 -0 0 0 0 0 0 0 0 0 0 0 0 1 1 0 -0 -0 -1 -1 -0 -0 -0 -0 -0 -0 -0 -0 nan
nan -0 -0 -0 -0 0 0 0 0 -0 -0 0 -0 -1 0 0 0 0 0 0 0 0 0 0 0 1 0 0 1 0 0 0 -0 -0 -1 -1 -0 -0 -0 -0 -0 -0 nan
nan 0 -0 -0 -0 0 0 0 -0 -0 0 -0 -0 1 0 0 0 0 -0 0 0 0 0 0 0 -0 -0 -0 0 1 1 0 0 -0 -0 -0 -0 -0 -0 0 0 0 nan
nan -0 0 0 -0 -0 0 0 -0 -0 -0 0 1 0 -0 0 0 -0 0 0 -0 0 0 0 0 0 0 0 0 1 1 0 0 0 0 0 0 0 0 0 0 0 nan
nan -0 -0 0 0 0 -0 0 0 -0 0 0 0 -0 0 0 -0 -0 -0 0 -0 0 0 0 0 0 0 0 -0 0 -0 0 -0 0 0 0 0 0 0 0 0 0 nan
nan -1 -0 -0 0 0 -0 0 -0 -0 0 0 -0 -0 0 -0 -0 -1 -0 0 -0 0 0 1 0 0 0 0 0 0 -0 1 0 0 0 0 0 0 0 0 0 0 nan
nan -1 -1 -0 -0 -0 0 0 -0 -0 -0 0 -0 -0 -0 -0 -1 -1 -0 -0 0 0 0 1 0 0 0 0 0 0 0 -0 0 1 0 0 0 0 0 0 0 0 nan
nan -0 -0 -1 -0 -0 -0 0 0 -0 -0 0 0 0 -0 -0 -0 -0 -0 0 0 -0 0 1 0 0 0 0 0 1 0 -0 1 1 0 0 0 0 0 0 0 0 nan
nan -0 -0 -0 -0 -0 -0 -0 -0 -0 -0 0 0 -0 -0 0 -0 -0 -0 -0 0 0 0 0 0 0 0 0 1 0 0 1 1 0 1 1 1 0 0 0 0 -0 nan
nan -0 -0 -0 -0 -0 -0 -0 -0 -0 -0 -0 0 0 0 -0 -0 0 -0 -1 -0 0 0 -0 -0 0 0 0 1 0 1 1 0 0 0 0 0 0 1 0 -0 -0 nan
nan -0 -0 -0 -1 -0 -0 -0 -0 -0 -0 -0 -0 -0 0 -0 -0 -0 0 -0 -1 -0 0 0 0 0 1 0 0 1 1 0 0 -0 -0 -0 0 0 0 -0 -0 0 nan
nan -0 -1 -1 -1 -1 -0 -0 0 -0 -0 -0 -0 -0 -0 0 0 -0 -0 -0 -0 -0 0 0 0 0 -0 0 1 1 1 1 0 0 0 0 0 0 -1 -0 0 0 nan
nan -0 -0 -1 -1 -1 -0 -0 -0 -0 -0 -0 -0 -0 0 -0 -0 0 -0 -0 -0 -0 -0 0 0 -0 0 1 1 0 1 0 0 1 1 1 -0 -1 -0 0 0 0 nan
nan -1 -0 -1 -1 -1 -0 -0 -0 -1 -1 -0 -0 0 -0 -0 0 -0 -0 -0 -0 -0 -0 0 0 0 0 0 0 0 1 0 1 1 1 0 -1 1 1 0 0 0 nan
nan -1 -1 -1 -1 -1 -0 0 0 -0 -0 -1 -1 -0 -0 -0 -0 -1 -0 0 0 -0 0 0 -0 0 0 0 0 0 0 1 1 1 1 -0 0 1 1 0 0 0 nan
nan -1 -1 -1 -1 -1 -1 0 0 -0 -0 -1 -1 -1 -0 -1 -1 -1 -0 0 0 0 0 0 -0 0 0 1 0 0 0 1 1 1 0 0 1 1 1 0 0 0 nan
nan -0 -1 -1 -1 -1 -1 -0 -0 -0 -1 -0 -0 -1 -1 -1 -0 -1 -0 -0 -1 0 0 -0 -0 -0 0 0 0 0 1 1 1 1 0 1 0 0 1 0 0 0 nan
nan -0 -0 -1 -1 -1 -1 -1 -1 -1 -1 -1 -1 -0 -1 -1 -1 -1 -1 0 0 0 -0 0 0 0 0 0 0 1 1 1 1 0 0 0 0 1 1 0 -0 0 nan
nan -1 -1 -1 -1 -0 -1 -2 -2 -1 -1 -1 -1 -1 -1 -1 -0 -1 0 0 0 0 1 1 0 0 0 1 1 0 1 1 1 0 0 0 1 1 1 0 0 0 nan
nan -1 -1 -1 -0 0 -1 -1 -1 -2 -2 -2 -1 -0 -0 -0 -0 0 0 -0 0 0 1 0 0 1 1 0 0 0 1 1 1 1 1 1 1 0 0 0 0 0 nan
nan -0 -1 -1 -0 0 -0 -1 -1 -1 -1 -2 -2 -1 -0 -0 -0 0 -0 -0 -0 0 0 -0 0 1 -0 -0 0 1 0 1 0 0 1 0 0 0 0 0 0 0 nan
nan -1 -1 -0 0 -0 -1 -1 -1 -1 -2 -2 -1 -1 -1 -0 -0 -0 -0 -0 -0 0 -0 0 0 -0 -0 1 1 1 1 1 0 1 0 0 0 0 0 0 0 0 nan
nan -1 -1 -0 -0 -1 -1 -1 -1 -1 -1 -1 -1 -1 -1 -1 -0 -0 -0 0 0 1 1 0 0 0 1 1 1 0 1 1 1 0 0 0 0 0 -0 0 0 0 nan
nan -0 0 -0 -0 -0 -1 -1 -1 -1 -1 -1 -1 -1 -0 -0 -0 -0 0 1 1 1 1 1 1 1 1 1 1 1 1 1 0 0 0 0 0 0 0 0 0 0 nan
nan nan nan nan nan nan nan nan nan nan nan nan nan nan nan nan nan nan nan nan nan nan nan nan nan nan nan nan nan nan nan nan nan nan nan nan nan nan nan nan nan nan nan
Wind_Speed
10 10 9 11 16 21 22 23 26 26 22 18 16 16 16 18 21 20 19 18 15 14 15 20 21 18 15 10 5 3 7 13 13 14 14 14 12 12 10 9 9 7 7
10 11 11 11 11 10 12 21 24 12 14 5 8 16 18 21 22 24 22 21 18 17 14 22 23 20 16 15 10 6 4 7 13 14 14 13 12 10 9 8 6 6 5
11 12 12 11 10 9 8 18 16 17 15 21 11 19 20 23 27 26 25 24 22 22 18 18 25 22 19 19 15 10 7 5 9 11 11 11 10 8 8 5 4 4 3
12 13 13 11 10 8 16 20 20 20 20 14 17 23 22 22 27 28 26 26 25 25 22 20 24 25 21 19 18 14 10 9 10 10 10 9 9 7 6 4 3 2 2
14 14 14 12 12 10 12 16 19 16 19 20 26 26 26 29 29 31 29 30 29 27 26 22 20 29 25 20 21 17 16 11 13 12 10 9 9 7 6 4 3 3 2
16 15 14 14 14 14 12 14 16 17 19 20 24 29 30 32 31 31 29 29 30 31 28 26 24 30 30 20 23 20 18 15 15 14 12 10 9 9 7 6 5 4 2
17 16 17 16 16 17 16 14 19 23 22 20 20 21 23 29 30 29 28 30 32 33 32 30 29 27 29 23 25 24 21 18 14 15 13 12 11 9 8 7 6 5 4
19 18 17 17 17 17 19 18 16 18 19 20 19 15 14 19 27 29 30 32 32 33 37 34 32 33 34 30 30 26 23 22 18 17 16 14 12 11 9 8 7 6 8
19 18 18 19 17 17 18 19 18 17 18 20 21 17 7 10 14 21 24 29 29 34 36 39 35 38 36 33 33 32 28 23 21 20 17 15 12 11 9 9 8 8 8
23 21 17 17 20 19 19 19 19 19 16 19 20 20 20 19 8 6 13 12 26 31 30 34 39 41 39 36 38 38 33 27 23 23 20 17 15 13 11 10 9 10 11
25 23 22 19 17 19 20 21 20 18 19 15 20 21 20 20 21 22 21 23 18 25 29 32 37 41 43 35 40 42 39 31 26 25 22 19 17 14 12 10 11 12 11
29 26 23 22 21 19 18 22 23 22 24 23 23 22 24 22 21 23 21 21 19 20 22 27 40 43 37 32 46 44 42 34 30 27 26 21 19 17 15 13 11 12 13
30 28 26 24 22 21 20 21 25 27 26 24 25 25 23 27 22 22 22 24 23 18 21 25 25 26 23 27 32 41 41 39 30 29 26 24 20 20 19 15 15 15 16
31 28 27 26 24 22 22 21 22 27 27 27 31 30 27 24 24 23 25 23 23 24 22 19 18 19 26 26 31 20 43 28 30 32 32 27 24 26 24 17 16 18 17
30 30 28 28 26 25 22 21 21 23 27 29 28 27 28 28 26 27 29 26 23 19 23 20 21 19 24 31 25 26 36 36 33 40 34 30 25 26 22 19 18 17 19
28 29 28 28 27 26 24 21 22 23 25 27 29 28 28 28 29 28 27 26 27 29 22 19 19 16 18 23 17 17 19 23 37 41 37 34 26 25 22 20 18 17 17
27 28 27 27 28 28 26 24 22 22 26 26 27 29 29 29 28 29 30 28 29 27 27 22 19 21 21 22 22 23 19 20 28 36 34 30 27 22 23 20 17 17 16
27 27 27 27 27 28 27 26 25 22 26 27 24 26 30 30 30 29 30 30 31 28 29 26 20 19 22 22 20 19 20 21 27 29 27 26 23 22 21 18 17 16 16
28 27 27 27 27 27 28 27 27 25 24 28 26 27 30 31 34 32 32 32 30 31 27 24 24 23 21 20 21 20 20 23 26 25 24 23 23 22 19 15 16 16 14
29 28 27 28 27 28 26 29 28 27 25 27 30 27 30 32 33 34 33 33 32 32 29 28 26 23 23 24 22 22 25 25 26 25 24 23 21 17 15 14 14 14 16
29 28 28 27 27 26 26 28 27 27 27 28 32 33 28 35 36 33 33 33 31 32 31 29 30 28 30 26 25 27 27 27 28 26 25 21 18 15 14 13 14 16 17
28 27 27 27 27 27 26 28 27 28 28 29 30 35 31 29 34 31 33 28 28 31 29 32 30 31 27 26 24 27 26 28 26 25 22 20 16 15 14 14 15 15 16
28 26 26 24 26 26 27 28 25 25 27 29 30 27 34 32 30 31 29 34 37 28 30 27 26 29 27 26 27 29 28 29 28 18 20 18 16 15 13 13 14 15 16
27 26 25 22 25 28 27 26 25 25 27 29 25 26 25 30 33 29 33 27 28 29 26 22 28 22 21 20 22 20 21 25 20 16 14 13 12 10 11 12 13 14 14
27 24 23 24 27 27 25 23 20 24 26 26 29 26 25 25 24 33 27 30 31 31 32 26 22 20 18 18 17 20 21 23 20 16 14 11 10 10 11 11 12 13 12
26 24 25 26 23 23 18 14 17 20 22 20 23 22 26 24 27 38 24 32 28 26 21 22 25 23 19 19 18 15 12 15 15 13 13 12 10 8 5 7 7 7 10
Wind_Direction
300 297 291 281 270 256 255 252 242 232 200 202 217 225 228 234 227 221 216 218 233 233 228 205 192 193 182 166 151 158 214 197 182 171 173 167 165 154 153 148 145 146 132
315 301 296 291 277 264 258 230 205 153 147 158 251 221 231 240 233 227 222 223 235 244 235 209 201 200 197 177 179 174 205 206 186 176 175 167 167 166 161 167 164 165 162
326 318 314 301 293 268 251 226 231 266 228 249 241 247 211 222 230 227 227 226 225 235 238 227 206 203 197 188 187 175 165 176 184 178 174 174 174 173 173 179 173 185 195
323 314 312 307 299 262 219 230 267 283 257 245 219 216 225 232 239 232 229 230 227 232 240 232 223 210 204 197 197 188 178 181 171 172 174 176 178 180 188 184 194 202 248
319 311 305 296 286 284 257 248 256 263 262 242 224 224 240 238 239 235 232 231 230 230 237 236 234 216 213 202 200 195 184 180 172 175 178 179 181 185 193 206 205 227 234
323 312 299 292 276 268 260 253 254 243 244 225 244 243 250 249 241 238 237 235 235 230 233 235 233 223 208 203 202 195 195 185 181 178 182 186 185 189 197 207 221 232 240
324 316 305 292 279 266 261 254 257 258 259 261 258 266 266 247 239 246 246 244 240 234 235 238 233 227 223 212 209 196 193 192 196 183 185 191 193 197 202 207 218 224 209
337 319 310 300 284 270 259 260 258 262 260 253 253 252 253 251 244 242 247 249 245 240 235 236 236 226 225 218 212 206 202 195 201 195 190 197 199 201 205 212 219 209 223
338 336 318 304 291 277 268 256 254 257 257 255 253 244 240 248 257 251 256 256 251 247 242 235 236 230 226 224 217 212 208 207 202 200 197 200 207 209 209 216 223 226 221
330 330 329 317 300 285 269 261 256 250 260 259 254 247 246 247 256 278 268 284 252 245 250 243 237 233 227 224 221 218 210 211 203 200 198 200 204 210 213 225 228 230 253
322 322 322 321 317 290 271 263 255 254 249 257 252 250 248 253 251 255 272 268 272 252 250 250 253 231 231 228 229 221 215 212 207 200 198 199 204 215 220 219 239 248 263
317 316 313 313 314 313 285 262 255 252 253 251 258 258 250 244 249 254 248 247 267 264 249 248 231 231 236 234 224 226 217 209 206 204 201 202 203 206 205 223 253 258 269
312 312 310 307 305 309 307 282 256 250 247 247 251 255 258 244 251 252 258 252 253 252 249 244 242 229 233 240 239 230 226 215 207 210 212 199 213 211 217 243 254 259 270
304 304 303 303 301 299 299 299 275 254 249 247 246 252 250 258 253 248 252 254 245 247 255 256 262 255 236 236 249 238 220 213 226 214 204 205 213 236 247 245 252 263 273
298 297 297 296 297 295 293 292 284 267 254 248 248 248 249 252 255 255 248 246 249 237 237 244 247 241 231 235 255 223 216 224 231 209 211 205 225 242 244 249 263 265 273
295 292 291 291 292 294 291 285 287 274 264 258 251 248 247 249 252 254 253 245 242 244 244 242 233 243 235 230 224 231 227 229 224 213 213 215 229 254 246 254 263 266 271
300 294 290 287 288 290 292 283 278 280 262 263 258 251 247 249 252 249 250 245 242 234 240 238 237 238 233 214 224 216 221 224 224 219 224 230 239 246 247 254 255 266 279
303 298 293 289 287 288 290 286 284 276 264 256 257 255 247 246 248 250 245 246 240 233 228 230 218 230 235 222 212 221 222 217 221 224 230 236 241 247 252 248 259 263 275
303 299 295 291 288 287 284 283 282 276 268 258 258 255 249 244 247 244 244 242 239 234 222 222 227 214 219 220 214 213 213 217 219 223 232 235 240 246 245 247 259 270 276
303 299 296 293 288 287 281 282 286 278 271 259 257 251 256 245 246 241 241 240 240 226 218 220 218 215 221 214 211 213 208 213 218 222 230 236 240 240 244 249 258 270 275
305 301 296 293 289 284 277 282 287 280 273 259 252 250 259 246 247 240 241 239 234 227 221 212 211 221 214 214 219 216 215 217 214 222 225 227 233 238 247 257 264 274 277
306 299 297 296 291 285 279 286 284 278 274 263 257 250 256 259 245 237 233 230 226 216 215 219 215 216 221 216 225 220 210 212 205 220 222 223 229 236 246 258 267 272 276
310 303 299 298 292 290 290 290 284 277 270 262 254 252 246 246 240 238 243 238 230 217 224 231 223 214 223 222 221 214 215 218 214 215 217 228 232 237 249 258 265 268 276
313 309 306 303 299 296 296 291 281 270 265 257 249 244 248 248 236 231 217 206 209 206 210 212 223 231 224 229 219 213 216 212 206 208 209 211 220 234 247 255 260 271 283
316 316 309 303 300 297 296 296 281 268 261 251 236 249 234 239 236 214 210 204 192 199 209 208 211 198 199 204 205 210 200 197 193 200 207 212 218 232 244 256 266 276 277
318 313 308 306 302 298 302 297 292 268 251 239 241 250 228 220 217 203 206 214 202 187 183 184 177 171 174 172 167 165 180 190 198 194 203 208 215 223 242 251 258 267 278
Height
1522 1521 1522 1521 1520 1521 1524 1524 1524 1524 1523 1529 1534 1536 1539 1543 1545 1546 1547 1549 1549 1550 1551 1552 1553 1554 1555 1555 1557 1558 1558 1559 1560 1561 1562 1564 1566 1567 1569 1570 1570 1571 1571
1521 1520 1519 1519 1520 1520 1519 1517 1517 1517 1518 1523 1530 1534 1535 1539 1541 1542 1544 1545 1546 1548 1548 1549 1550 1551 1553 1552 1554 1555 1556 1556 1557 1559 1561 1562 1564 1566 1567 1568 1569 1570 1570
1519 1517 1516 1515 1515 1516 1517 1516 1517 1519 1517 1515 1522 1532 1529 1528 1533 1536 1539 1541 1543 1545 1545 1547 1547 1549 1550 1551 1552 1553 1554 1555 1556 1557 1559 1561 1563 1564 1566 1567 1568 1569 1569
1518 1516 1514 1513 1512 1513 1513 1513 1514 1515 1516 1515 1515 1522 1524 1526 1529 1531 1532 1537 1538 1540 1542 1544 1545 1545 1547 1548 1550 1551 1552 1553 1554 1556 1558 1560 1562 1563 1564 1566 1567 1567 1568
1517 1515 1513 1511 1510 1510 1511 1512 1512 1511 1511 1511 1514 1517 1519 1521 1523 1525 1527 1530 1534 1535 1537 1540 1541 1542 1544 1546 1548 1549 1550 1551 1552 1554 1556 1558 1560 1561 1563 1564 1565 1566 1566
1514 1512 1510 1508 1508 1508 1508 1508 1508 1508 1509 1510 1511 1513 1513 1514 1517 1520 1521 1524 1528 1530 1532 1535 1536 1538 1539 1541 1544 1547 1548 1549 1550 1552 1554 1556 1557 1559 1560 1562 1563 1564 1565
1512 1509 1507 1505 1504 1504 1504 1504 1504 1504 1505 1506 1508 1507 1506 1509 1511 1514 1515 1518 1522 1524 1526 1530 1531 1534 1537 1539 1541 1543 1544 1546 1548 1549 1551 1554 1555 1556 1558 1559 1561 1562 1562
1510 1507 1503 1501 1500 1500 1500 1500 1500 1501 1501 1502 1503 1504 1503 1503 1504 1507 1510 1513 1515 1516 1519 1523 1525 1528 1531 1534 1537 1540 1541 1542 1544 1546 1547 1550 1552 1553 1555 1556 1557 1560 1560
1507 1504 1501 1499 1496 1495 1494 1495 1495 1497 1497 1498 1499 1501 1499 1499 1502 1503 1504 1505 1507 1509 1512 1514 1516 1521 1525 1528 1531 1535 1537 1538 1540 1543 1544 1546 1549 1550 1552 1553 1554 1555 1556
1503 1501 1498 1494 1492 1490 1490 1490 1491 1492 1493 1492 1494 1495 1495 1497 1497 1498 1497 1500 1501 1502 1505 1506 1509 1514 1516 1520 1524 1528 1530 1533 1536 1539 1541 1543 1545 1548 1549 1551 1552 1552 1552
1500 1497 1493 1490 1488 1486 1486 1485 1485 1486 1488 1487 1488 1490 1490 1491 1493 1496 1494 1496 1495 1497 1500 1502 1501 1502 1507 1513 1516 1520 1523 1527 1531 1536 1538 1540 1542 1543 1546 1547 1548 1549 1548
1494 1492 1489 1486 1484 1481 1479 1479 1479 1479 1482 1482 1483 1484 1485 1487 1488 1489 1492 1493 1493 1494 1494 1497 1495 1498 1501 1505 1505 1513 1515 1519 1524 1531 1533 1535 1539 1541 1542 1543 1544 1544 1545
1488 1485 1483 1481 1478 1476 1473 1472 1471 1472 1473 1475 1477 1478 1479 1479 1482 1484 1486 1487 1489 1489 1491 1492 1492 1491 1494 1501 1504 1506 1509 1512 1519 1524 1528 1530 1534 1537 1538 1537 1538 1540 1541
1481 1479 1477 1474 1472 1470 1469 1467 1465 1465 1466 1468 1470 1472 1472 1473 1475 1477 1480 1482 1481 1483 1485 1487 1489 1491 1492 1496 1499 1502 1504 1507 1515 1518 1521 1524 1528 1530 1532 1534 1533 1535 1536
1474 1471 1469 1467 1465 1464 1463 1461 1459 1458 1458 1459 1461 1464 1465 1466 1469 1471 1473 1476 1478 1478 1480 1481 1485 1486 1488 1492 1494 1499 1500 1503 1507 1510 1515 1519 1521 1523 1527 1528 1529 1530 1531
1467 1464 1462 1460 1457 1456 1455 1454 1453 1452 1452 1451 1452 1455 1456 1459 1461 1464 1466 1468 1471 1474 1476 1479 1480 1482 1484 1486 1490 1496 1498 1501 1502 1505 1508 1513 1516 1518 1522 1523 1524 1525 1525
1458 1456 1455 1453 1450 1448 1447 1446 1446 1445 1443 1444 1444 1446 1448 1451 1453 1456 1459 1462 1464 1466 1470 1472 1475 1477 1480 1481 1486 1489 1492 1494 1499 1502 1506 1508 1511 1514 1517 1518 1519 1519 1519
1450 1448 1446 1444 1442 1440 1439 1438 1437 1436 1435 1436 1436 1437 1439 1442 1444 1448 1450 1453 1456 1459 1462 1466 1470 1472 1476 1479 1482 1484 1486 1490 1495 1498 1501 1504 1507 1510 1511 1513 1513 1513 1514
1444 1442 1439 1437 1434 1433 1431 1430 1429 1427 1427 1427 1428 1429 1430 1433 1435 1439 1442 1446 1449 1452 1455 1459 1463 1467 1471 1473 1476 1479 1483 1486 1490 1493 1496 1499 1502 1505 1506 1507 1508 1509 1509
1436 1433 1431 1428 1425 1424 1423 1421 1419 1418 1417 1417 1419 1420 1421 1424 1427 1430 1434 1438 1441 1445 1448 1452 1456 1461 1464 1467 1471 1474 1478 1482 1486 1488 1491 1494 1497 1499 1501 1501 1503 1504 1503
1428 1425 1422 1419 1417 1416 1414 1413 1411 1409 1408 1408 1409 1411 1410 1415 1418 1422 1425 1429 1433 1437 1443 1446 1449 1453 1458 1461 1464 1468 1473 1477 1480 1483 1486 1490 1493 1494 1496 1497 1498 1499 1499
1420 1417 1414 1411 1408 1406 1405 1404 1404 1401 1399 1399 1399 1401 1403 1405 1409 1413 1417 1421 1425 1428 1435 1439 1444 1447 1452 1456 1460 1463 1467 1471 1475 1478 1481 1485 1487 1489 1491 1492 1493 1494 1494
1411 1409 1406 1403 1400 1398 1397 1395 1394 1393 1391 1390 1390 1391 1395 1395 1401 1405 1409 1414 1419 1424 1429 1434 1438 1441 1446 1450 1454 1457 1461 1465 1469 1473 1477 1480 1483 1485 1487 1488 1489 1489 1489
1405 1401 1398 1396 1393 1390 1388 1386 1385 1383 1381 1380 1381 1383 1385 1388 1393 1397 1398 1405 1412 1417 1422 1428 1433 1439 1442 1445 1449 1454 1457 1461 1466 1471 1474 1477 1480 1482 1483 1485 1485 1485 1485
1399 1396 1393 1389 1386 1382 1380 1377 1376 1374 1372 1371 1374 1376 1378 1382 1385 1391 1396 1396 1405 1412 1418 1424 1429 1433 1437 1441 1445 1450 1453 1458 1463 1467 1470 1474 1477 1478 1480 1480 1480 1481 1481
1394 1390 1386 1382 1378 1374 1372 1370 1368 1365 1364 1365 1367 1368 1373 1374 1379 1384 1390 1397 1403 1408 1414 1418 1423 1429 1434 1439 1443 1448 1452 1456 1460 1465 1468 1472 1473 1475 1477 1477 1477 1478 1478